Tracking 30415 objects as of 15-May-2025
HD Live streaming from Space Station
objects crossing your sky now

LEMUR 2 AMANDA-SVANTE

Track LEMUR 2 AMANDA-SVANTE now!
10-day predictions
LEMUR 2 AMANDA-SVANTE is classified as:


NORAD ID: 48269
Int'l Code: 2021-034B
Perigee: 527.2 km
Apogee: 533.0 km
Inclination: 97.6 °
Period: 95.1 minutes
Semi major axis: 6901 km
RCS: Unknown
Launch date: April 29, 2021
Source: United States (US)
Launch site: FRENCH GUIANA (FRGUI)
Your satellite tracking list
Your tracking list is empty




NASA's NSSDC Master Catalog

Two Line Element Set (TLE):
1 48269U 21034B   25134.42588106  .00015129  00000-0  82743-3 0  9993
2 48269  97.6170 203.0718 0004216 174.0690 186.0592 15.14360245220367
Source of the keplerian elements: AFSPC